Regional Weather Roundup
Issued by NWS

Home | Current Version | Previous Version | Text Only | Print | Product List | Glossary Off
Versions: 1 2 3 4 5 6 7 8 9 10 11 12 13 14 15 16 17 18 19 20 21 22 23 24 25 26 27 28 29 30 31 32 33 34 35 36 37 38 39 40 41 42 43 44 45 46 47 48 49 50

000
ASUS45 KTFX 290910
RWRMT
MONTANA REGIONAL WEATHER ROUNDUP
NATIONAL WEATHER SERVICE GREAT FALLS MT
300 AM MDT FRI JUL 29 2016

NOTE: "FAIR" INDICATES FEW OR NO CLOUDS BELOW 12000 FEET WITH NO
SIGNIFICANT WEATHER AND/OR OBSTRUCTIONS TO VISIBILITY.

MTZ001>007-043-291000-
WEST OF THE DIVIDE

CITY           SKY/WX    TMP DP  RH WIND       PRES   REMARKS
KALISPELL      CLEAR     58  54  86 N9        30.04S
MISSOULA       CLEAR     62  49  62 CALM      30.07S
BUTTE          CLEAR     52  38  58 SE7       30.21S
MULLAN PASS    CLEAR     65  40  39 N6        30.23F
ANACONDA         N/A     57  43  58 SW3       30.17S
DEER LODGE       N/A     55  45  67 W3        30.17F
EUREKA           N/A     61  50  67 N3        30.05
HAMILTON         N/A     61  48  63 CALM      30.09S
LIBBY            N/A     57  48  72 CALM      30.04S
PLAINS           N/A     58  49  72 CALM      30.05R
RONAN            N/A     56  50  80 CALM      30.09S
$$

MTZ008-052>055-291000-
SOUTHWEST MONTANA

CITY           SKY/WX    TMP DP  RH WIND       PRES   REMARKS
BOZEMAN        CLEAR     58  52  80 CALM      30.13F
DILLON         CLEAR     62  44  51 S3        30.16S
W YELLOWSTONE  CLOUDY    46  36  66 CALM      30.28S
ENNIS          CLEAR     54  41  62 E7        30.22S
THREE FORKS      N/A     56  56 100 CALM      30.10F
TWIN BRIDGES     N/A     59  41  51 SE5       30.13S
$$

MTZ009-010-012-014-046-048-049-054-291000-
EAST SLOPES AND CENTRAL MONTANA

CITY           SKY/WX    TMP DP  RH WIND       PRES   REMARKS
CUT BANK       MOCLDY    59  57  93 SW7       30.15F
GREAT FALLS    CLEAR     64  50  60 SE7       30.08F
MALMSTROM AFB  CLEAR     59  51  73 S6        30.08F
HELENA         PTCLDY    65  46  50 SW3       30.09F
CHOTEAU          N/A     59  55  88 N10       30.17S
$$

MTZ011-013-016-021-045-047-050-051-291000-
NORTH CENTRAL MONTANA

CITY           SKY/WX    TMP DP  RH WIND       PRES   REMARKS
HAVRE          CLOUDY    66  59  78 CALM      30.06S
N BAR RANCH      N/A     57  46  67 CALM      30.17F
CHINOOK          N/A     64  59  82 CALM      30.05F
$$

MTZ017>020-022>027-061-062-291000-
NORTHEAST MONTANA

CITY           SKY/WX    TMP DP  RH WIND       PRES   REMARKS
GLASGOW        CLEAR     58  53  84 E8        30.07F
JORDAN           N/A     60  57  89 CALM      30.08F
SIDNEY         CLEAR     54  52  93 CALM      30.11F
WOLF POINT     CLEAR     57  53  86 NE5       30.09F
PLENTYWOOD       N/A     57  54  88 E6        30.11S
POPLAR           N/A     57  54  88 N3        30.10S
SCOBEY           N/A     52  38  58 CALM      30.09S
$$

MTZ028>42-056>058-291000-
SOUTHCENTRAL AND SOUTHEAST MONTANA

CITY           SKY/WX    TMP DP  RH WIND       PRES   REMARKS
BAKER          CLOUDY    60  60 100 SE9       30.14S FOG
BILLINGS       CLEAR     64  50  60 N6        30.10F
LIVINGSTON     CLEAR     54  49  83 S3        30.16S
MILES CITY     CLEAR     64  58  80 SE6       30.09F
FORSYTH          N/A     63  57  82 CALM      30.08F
LAUREL           N/A     62  49  62 N2        30.09F
ROUNDUP          N/A     59  49  69 CALM      30.02F
$$

REGIONAL REPORTS...DAKOTAS

CITY           SKY/WX    TMP DP  RH WIND       PRES   REMARKS
WILLISTON      CLEAR     53  51  93 CALM      30.11F
MINOT          MOCLDY    60  54  80 SW7       30.11F
DICKINSON      PTCLDY    55  55 100 S3        30.12S FOG
BEACH            N/A     52  52 100 S3        30.16S
CROSBY           N/A     54  54 100 S7        30.13F
WATFORD CITY     N/A    N/A N/A N/A MISG        N/A
BISMARCK       CLOUDY    63  60  90 NE6       30.11F
GRAND FORKS    CLEAR     53  50  89 W6        30.09S
FARGO          MOCLDY    62  56  80 N5        30.08F
BUFFALO SD       N/A     60  60 100 SE10      30.08F
RAPID CITY     FOG       57  56  96 E6        30.14F VSB 1/2
$$

REGIONAL REPORTS...WYOMING/IDAHO/WASHINGTON

CITY           SKY/WX    TMP DP  RH WIND       PRES   REMARKS
GILLETTE       CLEAR     53  52  96 CALM      30.15F
SHERIDAN       CLEAR     55  50  83 CALM      30.12F
BUFFALO WY     CLEAR     58  50  75 SW7       30.18F
CODY           CLEAR     61  48  63 CALM      30.19F
YELLOWSTONE LA   N/A     46  39  76 CALM      30.36F
IDAHO FALLS    CLEAR     56  44  64 N7        30.07S
SALMON         CLEAR     61  45  55 CALM      30.08R
BOISE          CLEAR     72  42  34 S6        29.95S
SPOKANE        CLEAR     73  49  42 CALM      29.99S
$$

REGIONAL REPORTS...ALBERTA

CITY           SKY/WX    TMP DP  RH WIND       PRES   REMARKS
EDMONTON       PTCLDY    55  54  94 S3        30.03F
CALGARY        CLEAR     59  50  72 CALM      30.11F
LETHBRIDGE     MOCLDY    59  59 100 SW7       30.11F
MEDICINE HAT   MOCLDY    63  61  94 S7        30.03F
WATERTON GATE    N/A     52  50  93 SW3         N/A
MILK RIVER       N/A     59  57  94 NW3         N/A
ONEFOUR          N/A     63  57  82 NW10        N/A
$$

REGIONAL REPORTS...SASKATCHEWAN

CITY           SKY/WX    TMP DP  RH WIND       PRES   REMARKS
SWIFT CURRENT  CLOUDY    59  55  88 S8        30.04F
REGINA         CLEAR     54  50  87 SE7       30.08F
SASKATOON      LGT RAIN  64  63  94 SW9       30.03S
VAL MARIE        N/A     55  52  88 S3          N/A
ROCKGLEN         N/A     55  50  82 S7          N/A
ASSINIBOIA       N/A     57  57 100 SW8         N/A
$$



USA.gov is the U.S. government's official web portal to all federal, state and local government web resources and services.